Year,Month,Day,Hour,Minute,Value (Times are PST for temperature in C)
2016,06,05,00,00,17.90
2016,06,05,00,01,17.90
2016,06,05,00,02,17.80
2016,06,05,00,03,17.80
2016,06,05,00,04,17.80
2016,06,05,00,05,17.80
2016,06,05,00,06,17.80
2016,06,05,00,07,17.80
2016,06,05,00,08,17.80
2016,06,05,00,09,17.80
2016,06,05,00,10,17.80
2016,06,05,00,11,17.80
2016,06,05,00,12,17.80
2016,06,05,00,13,17.80
2016,06,05,00,14,17.80
2016,06,05,00,15,17.80
2016,06,05,00,16,17.80
2016,06,05,00,17,17.80
2016,06,05,00,18,17.80
2016,06,05,00,19,17.80
2016,06,05,00,20,17.80
2016,06,05,00,21,17.80
2016,06,05,00,22,17.80
2016,06,05,00,23,17.70
2016,06,05,00,24,17.70
2016,06,05,00,25,17.70
2016,06,05,00,26,17.70
2016,06,05,00,27,17.70
2016,06,05,00,28,17.70
2016,06,05,00,29,17.70
2016,06,05,00,30,17.60
2016,06,05,00,31,17.60
2016,06,05,00,32,17.60
2016,06,05,00,33,17.60
2016,06,05,00,34,17.60
2016,06,05,00,35,17.50
2016,06,05,00,36,17.50
2016,06,05,00,37,17.50
2016,06,05,00,38,17.50
2016,06,05,00,39,17.50
2016,06,05,00,40,17.40
2016,06,05,00,41,17.40
2016,06,05,00,42,17.40
2016,06,05,00,43,17.40
2016,06,05,00,44,17.40
2016,06,05,00,45,17.40
2016,06,05,00,46,17.40
2016,06,05,00,47,17.40
2016,06,05,00,48,17.40
2016,06,05,00,49,17.40
2016,06,05,00,50,17.40
2016,06,05,00,51,17.30
2016,06,05,00,52,17.30
2016,06,05,00,53,17.30
2016,06,05,00,54,17.30
2016,06,05,00,55,17.30
2016,06,05,00,56,17.30
2016,06,05,00,57,17.30
2016,06,05,00,58,17.30
2016,06,05,00,59,17.30
2016,06,05,01,00,17.30
2016,06,05,01,01,17.30
2016,06,05,01,02,17.30
2016,06,05,01,03,17.20
2016,06,05,01,04,17.20
2016,06,05,01,05,17.20
2016,06,05,01,06,17.20
2016,06,05,01,07,17.20
2016,06,05,01,08,17.20
2016,06,05,01,09,17.20
2016,06,05,01,10,17.20
2016,06,05,01,11,17.10
2016,06,05,01,12,17.10
2016,06,05,01,13,17.10
2016,06,05,01,14,17.10
2016,06,05,01,15,17.10
2016,06,05,01,16,17.10
2016,06,05,01,17,17.10
2016,06,05,01,18,17.10
2016,06,05,01,19,17.10
2016,06,05,01,20,17.10
2016,06,05,01,21,17.10
2016,06,05,01,22,17.10
2016,06,05,01,23,17.10
2016,06,05,01,24,17.10
2016,06,05,01,25,17.10
2016,06,05,01,26,17.10
2016,06,05,01,27,17.10
2016,06,05,01,28,17.10
2016,06,05,01,29,17.10
2016,06,05,01,30,17.10
2016,06,05,01,31,17.00
2016,06,05,01,32,17.00
2016,06,05,01,33,17.00
2016,06,05,01,34,17.00
2016,06,05,01,35,17.00
2016,06,05,01,36,17.00
2016,06,05,01,37,17.00
2016,06,05,01,38,17.00
2016,06,05,01,39,17.00
2016,06,05,01,40,16.90
2016,06,05,01,41,16.90
2016,06,05,01,42,16.90
2016,06,05,01,43,16.90
2016,06,05,01,44,16.90
2016,06,05,01,45,16.90
2016,06,05,01,46,16.80
2016,06,05,01,47,16.80
2016,06,05,01,48,16.80
2016,06,05,01,49,16.80
2016,06,05,01,50,16.70
2016,06,05,01,51,16.70
2016,06,05,01,52,16.70
2016,06,05,01,53,16.70
2016,06,05,01,54,16.70
2016,06,05,01,55,16.70
2016,06,05,01,56,16.70
2016,06,05,01,57,16.70
2016,06,05,01,58,16.70
2016,06,05,01,59,16.70
2016,06,05,02,00,16.70
2016,06,05,02,01,16.70
2016,06,05,02,02,16.70
2016,06,05,02,03,16.70
2016,06,05,02,04,16.60
2016,06,05,02,05,16.60
2016,06,05,02,06,16.60
2016,06,05,02,07,16.60
2016,06,05,02,08,16.60
2016,06,05,02,09,16.60
2016,06,05,02,10,16.60
2016,06,05,02,11,16.60
2016,06,05,02,12,16.60
2016,06,05,02,13,16.60
2016,06,05,02,14,16.60
2016,06,05,02,15,16.60
2016,06,05,02,16,16.60
2016,06,05,02,17,16.50
2016,06,05,02,18,16.40
2016,06,05,02,19,16.40
2016,06,05,02,20,16.40
2016,06,05,02,21,16.40
2016,06,05,02,22,16.40
2016,06,05,02,23,16.40
2016,06,05,02,24,16.40
2016,06,05,02,25,16.40
2016,06,05,02,26,16.40
2016,06,05,02,27,16.40
2016,06,05,02,28,16.40
2016,06,05,02,29,16.40
2016,06,05,02,30,16.40
2016,06,05,02,31,16.40
2016,06,05,02,32,16.40
2016,06,05,02,33,16.40
2016,06,05,02,34,16.40
2016,06,05,02,35,16.40
2016,06,05,02,36,16.40
2016,06,05,02,37,16.40
2016,06,05,02,38,16.40
2016,06,05,02,39,16.40
2016,06,05,02,40,16.40
2016,06,05,02,41,16.40
2016,06,05,02,42,16.40
2016,06,05,02,43,16.40
2016,06,05,02,44,16.40
2016,06,05,02,45,16.40
2016,06,05,02,46,16.40
2016,06,05,02,47,16.40
2016,06,05,02,48,16.40
2016,06,05,02,49,16.40
2016,06,05,02,50,16.40
2016,06,05,02,51,16.30
2016,06,05,02,52,16.30
2016,06,05,02,53,16.30
2016,06,05,02,54,16.30
2016,06,05,02,55,16.30
2016,06,05,02,56,16.30
2016,06,05,02,57,16.30
2016,06,05,02,58,16.30
2016,06,05,02,59,16.30
2016,06,05,03,00,16.20
2016,06,05,03,01,16.20
2016,06,05,03,02,16.20
2016,06,05,03,03,16.20
2016,06,05,03,04,16.20
2016,06,05,03,05,16.20
2016,06,05,03,06,16.20
2016,06,05,03,07,16.20
2016,06,05,03,08,16.10
2016,06,05,03,09,16.10
2016,06,05,03,10,16.10
2016,06,05,03,11,16.10
2016,06,05,03,12,16.10
2016,06,05,03,13,16.10
2016,06,05,03,14,16.10
2016,06,05,03,15,16.10
2016,06,05,03,16,16.00
2016,06,05,03,17,15.90
2016,06,05,03,18,15.90
2016,06,05,03,19,15.90
2016,06,05,03,20,15.90
2016,06,05,03,21,15.90
2016,06,05,03,22,15.90
2016,06,05,03,23,15.90
2016,06,05,03,24,15.90
2016,06,05,03,25,15.90
2016,06,05,03,26,15.90
2016,06,05,03,27,15.90
2016,06,05,03,28,15.90
2016,06,05,03,29,15.90
2016,06,05,03,30,15.90
2016,06,05,03,31,15.80
2016,06,05,03,32,15.80
2016,06,05,03,33,15.80
2016,06,05,03,34,15.80
2016,06,05,03,35,15.80
2016,06,05,03,36,15.80
2016,06,05,03,37,15.80
2016,06,05,03,38,15.80
2016,06,05,03,39,15.80
2016,06,05,03,40,15.80
2016,06,05,03,41,15.80
2016,06,05,03,42,15.80
2016,06,05,03,43,15.80
2016,06,05,03,44,15.80
2016,06,05,03,45,15.80
2016,06,05,03,46,15.80
2016,06,05,03,47,15.80
2016,06,05,03,48,15.80
2016,06,05,03,49,15.80
2016,06,05,03,50,15.80
2016,06,05,03,51,15.80
2016,06,05,03,52,15.70
2016,06,05,03,53,15.70
2016,06,05,03,54,15.70
2016,06,05,03,55,15.70
2016,06,05,03,56,15.70
2016,06,05,03,57,15.70
2016,06,05,03,58,15.70
2016,06,05,03,59,15.70
2016,06,05,04,00,15.60
2016,06,05,04,01,15.60
2016,06,05,04,02,15.60
2016,06,05,04,03,15.60
2016,06,05,04,04,15.60
2016,06,05,04,05,15.60
2016,06,05,04,06,15.60
2016,06,05,04,07,15.60
2016,06,05,04,08,15.60
2016,06,05,04,09,15.60
2016,06,05,04,10,15.60
2016,06,05,04,11,15.60
2016,06,05,04,12,15.60
2016,06,05,04,13,15.50
2016,06,05,04,14,15.50
2016,06,05,04,15,15.50
2016,06,05,04,16,15.50
2016,06,05,04,17,15.50
2016,06,05,04,18,15.50
2016,06,05,04,19,15.50
2016,06,05,04,20,15.50
2016,06,05,04,21,15.50
2016,06,05,04,22,15.40
2016,06,05,04,23,15.40
2016,06,05,04,24,15.40
2016,06,05,04,25,15.40
2016,06,05,04,26,15.30
2016,06,05,04,27,15.30
2016,06,05,04,28,15.30
2016,06,05,04,29,15.30
2016,06,05,04,30,15.30
2016,06,05,04,31,15.30
2016,06,05,04,32,15.30
2016,06,05,04,33,15.30
2016,06,05,04,34,15.30
2016,06,05,04,35,15.30
2016,06,05,04,36,15.30
2016,06,05,04,37,15.30
2016,06,05,04,38,15.30
2016,06,05,04,39,15.30
2016,06,05,04,40,15.30
2016,06,05,04,41,15.30
2016,06,05,04,42,15.30
2016,06,05,04,43,15.30
2016,06,05,04,44,15.30
2016,06,05,04,45,15.30
2016,06,05,04,46,15.30
2016,06,05,04,47,15.30
2016,06,05,04,48,15.30
2016,06,05,04,49,15.30
2016,06,05,04,50,15.30
2016,06,05,04,51,15.30
2016,06,05,04,52,15.30
2016,06,05,04,53,15.30
2016,06,05,04,54,15.30
2016,06,05,04,55,15.20
2016,06,05,04,56,15.20
2016,06,05,04,57,15.20
2016,06,05,04,58,15.20
2016,06,05,04,59,15.20
2016,06,05,05,00,15.20
2016,06,05,05,01,15.20
2016,06,05,05,02,15.20
2016,06,05,05,03,15.20
2016,06,05,05,04,15.20
2016,06,05,05,05,15.20
2016,06,05,05,06,15.20
2016,06,05,05,07,15.10
2016,06,05,05,08,15.10
2016,06,05,05,09,15.10
2016,06,05,05,10,15.10
2016,06,05,05,11,15.10
2016,06,05,05,12,15.10
2016,06,05,05,13,15.10
2016,06,05,05,14,15.10
2016,06,05,05,15,15.10
2016,06,05,05,16,15.10
2016,06,05,05,17,15.10
2016,06,05,05,18,15.10
2016,06,05,05,19,15.10
2016,06,05,05,20,15.10
2016,06,05,05,21,15.10
2016,06,05,05,22,15.10
2016,06,05,05,23,15.10
2016,06,05,05,24,15.00
2016,06,05,05,25,15.00
2016,06,05,05,26,15.00
2016,06,05,05,27,15.00
2016,06,05,05,28,15.00
2016,06,05,05,29,15.00
2016,06,05,05,30,15.00
2016,06,05,05,31,15.00
2016,06,05,05,32,15.00
2016,06,05,05,33,15.00
2016,06,05,05,34,15.00
2016,06,05,05,35,15.00
2016,06,05,05,36,15.10
2016,06,05,05,37,15.10
2016,06,05,05,38,15.10
2016,06,05,05,39,15.10
2016,06,05,05,40,15.10
2016,06,05,05,41,15.20
2016,06,05,05,42,15.20
2016,06,05,05,43,15.20
2016,06,05,05,44,15.20
2016,06,05,05,45,15.20
2016,06,05,05,46,15.30
2016,06,05,05,47,15.30
2016,06,05,05,48,15.30
2016,06,05,05,49,15.30
2016,06,05,05,50,15.30
2016,06,05,05,51,15.40
2016,06,05,05,52,15.40
2016,06,05,05,53,15.50
2016,06,05,05,54,15.60
2016,06,05,05,55,15.70
2016,06,05,05,56,15.80
2016,06,05,05,57,15.90
2016,06,05,05,58,16.00
2016,06,05,05,59,16.10
2016,06,05,06,00,16.10
2016,06,05,06,01,16.20
2016,06,05,06,02,16.20
2016,06,05,06,03,16.30
2016,06,05,06,04,16.40
2016,06,05,06,05,16.40
2016,06,05,06,06,16.60
2016,06,05,06,07,16.60
2016,06,05,06,08,16.70
2016,06,05,06,09,16.70
2016,06,05,06,10,16.70
2016,06,05,06,11,16.70
2016,06,05,06,12,16.70
2016,06,05,06,13,16.70
2016,06,05,06,14,16.70
2016,06,05,06,15,16.70
2016,06,05,06,16,16.80
2016,06,05,06,17,16.80
2016,06,05,06,18,16.80
2016,06,05,06,19,16.90
2016,06,05,06,20,16.90
2016,06,05,06,21,16.90
2016,06,05,06,22,17.00
2016,06,05,06,23,17.00
2016,06,05,06,24,17.10
2016,06,05,06,25,17.10
2016,06,05,06,26,17.20
2016,06,05,06,27,17.30
2016,06,05,06,28,17.40
2016,06,05,06,29,17.50
2016,06,05,06,30,17.60
2016,06,05,06,31,17.70
2016,06,05,06,32,17.70
2016,06,05,06,33,17.90
2016,06,05,06,34,17.90
2016,06,05,06,35,18.10
2016,06,05,06,36,18.20
2016,06,05,06,37,18.20
2016,06,05,06,38,18.30
2016,06,05,06,39,18.40
2016,06,05,06,40,18.40
2016,06,05,06,41,18.50
2016,06,05,06,42,18.50
2016,06,05,06,43,18.60
2016,06,05,06,44,18.70
2016,06,05,06,45,18.70
2016,06,05,06,46,18.80
2016,06,05,06,47,18.90
2016,06,05,06,48,19.00
2016,06,05,06,49,19.10
2016,06,05,06,50,19.10
2016,06,05,06,51,19.20
2016,06,05,06,52,19.30
2016,06,05,06,53,19.40
2016,06,05,06,54,19.50
2016,06,05,06,55,19.60
2016,06,05,06,56,19.60
2016,06,05,06,57,19.70
2016,06,05,06,58,19.80
2016,06,05,06,59,19.90
2016,06,05,07,00,19.90
2016,06,05,07,01,20.00
2016,06,05,07,02,20.10
2016,06,05,07,03,20.20
2016,06,05,07,04,20.20
2016,06,05,07,05,20.30
2016,06,05,07,06,20.30
2016,06,05,07,07,20.40
2016,06,05,07,08,20.50
2016,06,05,07,09,20.50
2016,06,05,07,10,20.50
2016,06,05,07,11,20.60
2016,06,05,07,12,20.60
2016,06,05,07,13,20.70
2016,06,05,07,14,20.80
2016,06,05,07,15,20.90
2016,06,05,07,16,21.00
2016,06,05,07,17,21.00
2016,06,05,07,18,21.10
2016,06,05,07,19,21.20
2016,06,05,07,20,21.20
2016,06,05,07,21,21.20
2016,06,05,07,22,21.30
2016,06,05,07,23,21.30
2016,06,05,07,24,21.30
2016,06,05,07,25,21.30
2016,06,05,07,26,21.30
2016,06,05,07,27,21.30
2016,06,05,07,28,21.30
2016,06,05,07,29,21.40
2016,06,05,07,30,21.50
2016,06,05,07,31,21.60
2016,06,05,07,32,21.60
2016,06,05,07,33,21.60
2016,06,05,07,34,21.70
2016,06,05,07,35,21.70
2016,06,05,07,36,21.80
2016,06,05,07,37,21.80
2016,06,05,07,38,21.80
2016,06,05,07,39,21.90
2016,06,05,07,40,21.90
2016,06,05,07,41,21.90
2016,06,05,07,42,21.90
2016,06,05,07,43,21.90
2016,06,05,07,44,21.90
2016,06,05,07,45,22.00
2016,06,05,07,46,22.00
2016,06,05,07,47,22.00
2016,06,05,07,48,22.00
2016,06,05,07,49,22.00
2016,06,05,07,50,22.00
2016,06,05,07,51,22.10
2016,06,05,07,52,22.10
2016,06,05,07,53,22.10
2016,06,05,07,54,22.20
2016,06,05,07,55,22.20
2016,06,05,07,56,22.20
2016,06,05,07,57,22.30
2016,06,05,07,58,22.30
2016,06,05,07,59,22.30
2016,06,05,08,00,22.20
2016,06,05,08,01,22.20
2016,06,05,08,02,22.20
2016,06,05,08,03,22.10
2016,06,05,08,04,22.10
2016,06,05,08,05,22.10
2016,06,05,08,06,22.10
2016,06,05,08,07,22.10
2016,06,05,08,08,22.10
2016,06,05,08,09,22.10
2016,06,05,08,10,22.10
2016,06,05,08,11,22.10
2016,06,05,08,12,22.10
2016,06,05,08,13,22.00
2016,06,05,08,14,22.00
2016,06,05,08,15,22.00
2016,06,05,08,16,22.00
2016,06,05,08,17,21.90
2016,06,05,08,18,21.90
2016,06,05,08,19,21.90
2016,06,05,08,20,21.90
2016,06,05,08,21,21.90
2016,06,05,08,22,21.90
2016,06,05,08,23,22.00
2016,06,05,08,24,22.00
2016,06,05,08,25,22.00
2016,06,05,08,26,22.10
2016,06,05,08,27,22.10
2016,06,05,08,28,22.10
2016,06,05,08,29,22.10
2016,06,05,08,30,22.10
2016,06,05,08,31,22.10
2016,06,05,08,32,22.10
2016,06,05,08,33,22.10
2016,06,05,08,34,22.20
2016,06,05,08,35,22.20
2016,06,05,08,36,22.20
2016,06,05,08,37,22.20
2016,06,05,08,38,22.20
2016,06,05,08,39,22.20
2016,06,05,08,40,22.20
2016,06,05,08,41,22.30
2016,06,05,08,42,22.30
2016,06,05,08,43,22.30
2016,06,05,08,44,22.30
2016,06,05,08,45,22.20
2016,06,05,08,46,22.20
2016,06,05,08,47,22.30
2016,06,05,08,48,22.30
2016,06,05,08,49,22.30
2016,06,05,08,50,22.30
2016,06,05,08,51,22.40
2016,06,05,08,52,22.50
2016,06,05,08,53,22.60
2016,06,05,08,54,22.60
2016,06,05,08,55,22.70
2016,06,05,08,56,22.80
2016,06,05,08,57,22.90
2016,06,05,08,58,22.90
2016,06,05,08,59,22.90
2016,06,05,09,00,22.90
2016,06,05,09,01,23.00
2016,06,05,09,02,23.10
2016,06,05,09,03,23.10
2016,06,05,09,04,23.20
2016,06,05,09,05,23.30
2016,06,05,09,06,23.30
2016,06,05,09,07,23.30
2016,06,05,09,08,23.30
2016,06,05,09,09,23.30
2016,06,05,09,10,23.30
2016,06,05,09,11,23.30
2016,06,05,09,12,23.30
2016,06,05,09,13,23.30
2016,06,05,09,14,23.40
2016,06,05,09,15,23.50
2016,06,05,09,16,23.60
2016,06,05,09,17,23.60
2016,06,05,09,18,23.70
2016,06,05,09,19,23.70
2016,06,05,09,20,23.70
2016,06,05,09,21,23.70
2016,06,05,09,22,23.70
2016,06,05,09,23,23.80
2016,06,05,09,24,23.80
2016,06,05,09,25,23.80
2016,06,05,09,26,23.80
2016,06,05,09,27,23.80
2016,06,05,09,28,23.80
2016,06,05,09,29,23.80
2016,06,05,09,30,23.90
2016,06,05,09,31,23.90
2016,06,05,09,32,23.90
2016,06,05,09,33,23.90
2016,06,05,09,34,23.90
2016,06,05,09,35,24.00
2016,06,05,09,36,24.10
2016,06,05,09,37,24.10
2016,06,05,09,38,24.10
2016,06,05,09,39,24.10
2016,06,05,09,40,24.10
2016,06,05,09,41,24.10
2016,06,05,09,42,24.10
2016,06,05,09,43,24.10
2016,06,05,09,44,24.10
2016,06,05,09,45,24.10
2016,06,05,09,46,24.10
2016,06,05,09,47,24.10
2016,06,05,09,48,24.10
2016,06,05,09,49,24.10
2016,06,05,09,50,24.20
2016,06,05,09,51,24.30
2016,06,05,09,52,24.40
2016,06,05,09,53,24.40
2016,06,05,09,54,24.50
2016,06,05,09,55,24.50
2016,06,05,09,56,24.60
2016,06,05,09,57,24.60
2016,06,05,09,58,24.70
2016,06,05,09,59,24.70
2016,06,05,10,00,24.70
2016,06,05,10,01,24.70
2016,06,05,10,02,24.70
2016,06,05,10,03,24.70
2016,06,05,10,04,24.80
2016,06,05,10,05,24.80
2016,06,05,10,06,24.90
2016,06,05,10,07,24.90
2016,06,05,10,08,25.00
2016,06,05,10,09,25.00
2016,06,05,10,10,25.10
2016,06,05,10,11,25.10
2016,06,05,10,12,25.10
2016,06,05,10,13,25.10
2016,06,05,10,14,25.10
2016,06,05,10,15,25.10
2016,06,05,10,16,25.10
2016,06,05,10,17,25.10
2016,06,05,10,18,25.00
2016,06,05,10,19,24.90
2016,06,05,10,20,24.90
2016,06,05,10,21,24.90
2016,06,05,10,22,24.90
2016,06,05,10,23,24.90
2016,06,05,10,24,24.90
2016,06,05,10,25,25.00
2016,06,05,10,26,25.10
2016,06,05,10,27,25.20
2016,06,05,10,28,25.20
2016,06,05,10,29,25.30
2016,06,05,10,30,25.30
2016,06,05,10,31,25.40
2016,06,05,10,32,25.40
2016,06,05,10,33,25.40
2016,06,05,10,34,25.50
2016,06,05,10,35,25.50
2016,06,05,10,36,25.50
2016,06,05,10,37,25.60
2016,06,05,10,38,25.60
2016,06,05,10,39,25.60
2016,06,05,10,40,25.70
2016,06,05,10,41,25.70
2016,06,05,10,42,25.80
2016,06,05,10,43,25.80
2016,06,05,10,44,25.80
2016,06,05,10,45,25.80
2016,06,05,10,46,25.80
2016,06,05,10,47,25.80
2016,06,05,10,48,25.80
2016,06,05,10,49,25.90
2016,06,05,10,50,25.90
2016,06,05,10,51,25.90
2016,06,05,10,52,25.90
2016,06,05,10,53,25.90
2016,06,05,10,54,25.90
2016,06,05,10,55,25.90
2016,06,05,10,56,25.80
2016,06,05,10,57,25.80
2016,06,05,10,58,25.70
2016,06,05,10,59,25.60
2016,06,05,11,00,25.60
2016,06,05,11,01,25.60
2016,06,05,11,02,25.60
2016,06,05,11,03,25.70
2016,06,05,11,04,25.70
2016,06,05,11,05,25.80
2016,06,05,11,06,25.80
2016,06,05,11,07,25.80
2016,06,05,11,08,25.90
2016,06,05,11,09,25.90
2016,06,05,11,10,25.90
2016,06,05,11,11,25.90
2016,06,05,11,12,26.00
2016,06,05,11,13,26.00
2016,06,05,11,14,26.00
2016,06,05,11,15,26.00
2016,06,05,11,16,26.00
2016,06,05,11,17,26.00
2016,06,05,11,18,26.00
2016,06,05,11,19,26.00
2016,06,05,11,20,26.00
2016,06,05,11,21,26.10
2016,06,05,11,22,26.10
2016,06,05,11,23,26.10
2016,06,05,11,24,26.20
2016,06,05,11,25,26.20
2016,06,05,11,26,26.20
2016,06,05,11,27,26.20
2016,06,05,11,28,26.20
2016,06,05,11,29,26.30
2016,06,05,11,30,26.30
2016,06,05,11,31,26.30
2016,06,05,11,32,26.20
2016,06,05,11,33,26.20
2016,06,05,11,34,26.10
2016,06,05,11,35,26.10
2016,06,05,11,36,26.10
2016,06,05,11,37,26.10
2016,06,05,11,38,26.10
2016,06,05,11,39,26.10
2016,06,05,11,40,26.10
2016,06,05,11,41,26.10
2016,06,05,11,42,26.10
2016,06,05,11,43,26.10
2016,06,05,11,44,26.10
2016,06,05,11,45,26.20
2016,06,05,11,46,26.20
2016,06,05,11,47,26.30
2016,06,05,11,48,26.30
2016,06,05,11,49,26.40
2016,06,05,11,50,26.40
2016,06,05,11,51,26.40
2016,06,05,11,52,26.50
2016,06,05,11,53,26.60
2016,06,05,11,54,26.60
2016,06,05,11,55,26.60
2016,06,05,11,56,26.60
2016,06,05,11,57,26.60
2016,06,05,11,58,26.70
2016,06,05,11,59,26.70
2016,06,05,12,00,26.80
2016,06,05,12,01,26.90
2016,06,05,12,02,26.90
2016,06,05,12,03,27.00
2016,06,05,12,04,27.00
2016,06,05,12,05,27.00
2016,06,05,12,06,27.00
2016,06,05,12,07,26.90
2016,06,05,12,08,27.10
2016,06,05,12,09,27.10
2016,06,05,12,10,27.00
2016,06,05,12,11,26.90
2016,06,05,12,12,27.00
2016,06,05,12,13,27.10
2016,06,05,12,14,27.10
2016,06,05,12,15,27.10
2016,06,05,12,16,27.20
2016,06,05,12,17,27.30
2016,06,05,12,18,27.30
2016,06,05,12,19,27.40
2016,06,05,12,20,27.50
2016,06,05,12,21,27.60
2016,06,05,12,22,27.60
2016,06,05,12,23,27.70
2016,06,05,12,24,27.80
2016,06,05,12,25,27.90
2016,06,05,12,26,27.90
2016,06,05,12,27,28.00
2016,06,05,12,28,28.10
2016,06,05,12,29,28.10
2016,06,05,12,30,28.20
2016,06,05,12,31,28.20
2016,06,05,12,32,28.30
2016,06,05,12,33,28.40
2016,06,05,12,34,28.40
2016,06,05,12,35,28.50
2016,06,05,12,36,28.60
2016,06,05,12,37,28.60
2016,06,05,12,38,28.50
2016,06,05,12,39,28.40
2016,06,05,12,40,28.30
2016,06,05,12,41,28.30
2016,06,05,12,42,28.20
2016,06,05,12,43,28.20
2016,06,05,12,44,28.20
2016,06,05,12,45,28.20
2016,06,05,12,46,28.30
2016,06,05,12,47,28.30
2016,06,05,12,48,28.40
2016,06,05,12,49,28.50
2016,06,05,12,50,28.60
2016,06,05,12,51,28.60
2016,06,05,12,52,28.60
2016,06,05,12,53,28.70
2016,06,05,12,54,28.70
2016,06,05,12,55,28.80
2016,06,05,12,56,28.70
2016,06,05,12,57,28.70
2016,06,05,12,58,28.60
2016,06,05,12,59,28.50
2016,06,05,13,00,28.40
2016,06,05,13,01,28.40
2016,06,05,13,02,28.40
2016,06,05,13,03,28.40
2016,06,05,13,04,28.40
2016,06,05,13,05,28.30
2016,06,05,13,06,28.30
2016,06,05,13,07,28.40
2016,06,05,13,08,28.50
2016,06,05,13,09,28.60
2016,06,05,13,10,28.70
2016,06,05,13,11,28.70
2016,06,05,13,12,28.80
2016,06,05,13,13,28.80
2016,06,05,13,14,28.80
2016,06,05,13,15,28.80
2016,06,05,13,16,28.80
2016,06,05,13,17,28.90
2016,06,05,13,18,28.90
2016,06,05,13,19,28.90
2016,06,05,13,20,29.00
2016,06,05,13,21,29.10
2016,06,05,13,22,29.20
2016,06,05,13,23,29.20
2016,06,05,13,24,29.30
2016,06,05,13,25,29.30
2016,06,05,13,26,29.30
2016,06,05,13,27,29.30
2016,06,05,13,28,29.20
2016,06,05,13,29,29.10
2016,06,05,13,30,29.10
2016,06,05,13,31,28.90
2016,06,05,13,32,28.90
2016,06,05,13,33,28.90
2016,06,05,13,34,28.90
2016,06,05,13,35,29.00
2016,06,05,13,36,29.10
2016,06,05,13,37,29.10
2016,06,05,13,38,29.10
2016,06,05,13,39,29.10
2016,06,05,13,40,29.20
2016,06,05,13,41,29.20
2016,06,05,13,42,29.30
2016,06,05,13,43,29.30
2016,06,05,13,44,29.40
2016,06,05,13,45,29.50
2016,06,05,13,46,29.50
2016,06,05,13,47,29.50
2016,06,05,13,48,29.50
2016,06,05,13,49,29.50
2016,06,05,13,50,29.50
2016,06,05,13,51,29.50
2016,06,05,13,52,29.50
2016,06,05,13,53,29.60
2016,06,05,13,54,29.70
2016,06,05,13,55,29.70
2016,06,05,13,56,29.70
2016,06,05,13,57,29.80
2016,06,05,13,58,29.80
2016,06,05,13,59,29.80
2016,06,05,14,00,29.80
2016,06,05,14,01,29.80
2016,06,05,14,02,29.70
2016,06,05,14,03,29.60
2016,06,05,14,04,29.60
2016,06,05,14,05,29.60
2016,06,05,14,06,29.60
2016,06,05,14,07,29.50
2016,06,05,14,08,29.50
2016,06,05,14,09,29.50
2016,06,05,14,10,29.50
2016,06,05,14,11,29.50
2016,06,05,14,12,29.50
2016,06,05,14,13,29.50
2016,06,05,14,14,29.50
2016,06,05,14,15,29.50
2016,06,05,14,16,29.40
2016,06,05,14,17,29.40
2016,06,05,14,18,29.40
2016,06,05,14,19,29.40
2016,06,05,14,20,29.50
2016,06,05,14,21,29.60
2016,06,05,14,22,29.60
2016,06,05,14,23,29.70
2016,06,05,14,24,29.80
2016,06,05,14,25,29.90
2016,06,05,14,26,29.90
2016,06,05,14,27,29.90
2016,06,05,14,28,29.90
2016,06,05,14,29,30.00
2016,06,05,14,30,30.00
2016,06,05,14,31,30.00
2016,06,05,14,32,30.10
2016,06,05,14,33,30.10
2016,06,05,14,34,30.20
2016,06,05,14,35,30.20
2016,06,05,14,36,30.30
2016,06,05,14,37,30.40
2016,06,05,14,38,30.50
2016,06,05,14,39,30.60
2016,06,05,14,40,30.70
2016,06,05,14,41,30.70
2016,06,05,14,42,30.80
2016,06,05,14,43,30.90
2016,06,05,14,44,30.90
2016,06,05,14,45,30.90
2016,06,05,14,46,30.90
2016,06,05,14,47,30.80
2016,06,05,14,48,30.80
2016,06,05,14,49,30.80
2016,06,05,14,50,30.80
2016,06,05,14,51,30.70
2016,06,05,14,52,30.70
2016,06,05,14,53,30.70
2016,06,05,14,54,30.80
2016,06,05,14,55,30.80
2016,06,05,14,56,30.80
2016,06,05,14,57,30.90
2016,06,05,14,58,30.90
2016,06,05,14,59,31.00
2016,06,05,15,00,31.00
2016,06,05,15,01,31.10
2016,06,05,15,02,31.10
2016,06,05,15,03,30.90
2016,06,05,15,04,30.80
2016,06,05,15,05,30.70
2016,06,05,15,06,30.50
2016,06,05,15,07,30.40
2016,06,05,15,08,30.30
2016,06,05,15,09,30.00
2016,06,05,15,10,29.80
2016,06,05,15,11,29.60
2016,06,05,15,12,29.50
2016,06,05,15,13,29.40
2016,06,05,15,14,29.20
2016,06,05,15,15,29.20
2016,06,05,15,16,29.10
2016,06,05,15,17,29.00
2016,06,05,15,18,28.90
2016,06,05,15,19,28.90
2016,06,05,15,20,28.90
2016,06,05,15,21,28.90
2016,06,05,15,22,28.90
2016,06,05,15,23,28.90
2016,06,05,15,24,28.90
2016,06,05,15,25,28.90
2016,06,05,15,26,28.90
2016,06,05,15,27,29.00
2016,06,05,15,28,29.10
2016,06,05,15,29,29.20
2016,06,05,15,30,29.30
2016,06,05,15,31,29.40
2016,06,05,15,32,29.50
2016,06,05,15,33,29.40
2016,06,05,15,34,29.40
2016,06,05,15,35,29.40
2016,06,05,15,36,29.50
2016,06,05,15,37,29.40
2016,06,05,15,38,29.40
2016,06,05,15,39,29.40
2016,06,05,15,40,29.40
2016,06,05,15,41,29.30
2016,06,05,15,42,29.20
2016,06,05,15,43,29.20
2016,06,05,15,44,29.30
2016,06,05,15,45,29.30
2016,06,05,15,46,29.20
2016,06,05,15,47,29.10
2016,06,05,15,48,29.20
2016,06,05,15,49,29.30
2016,06,05,15,50,29.30
2016,06,05,15,51,29.40
2016,06,05,15,52,29.40
2016,06,05,15,53,29.40
2016,06,05,15,54,29.50
2016,06,05,15,55,29.50
2016,06,05,15,56,29.40
2016,06,05,15,57,29.40
2016,06,05,15,58,29.30
2016,06,05,15,59,29.40
2016,06,05,16,00,29.50
2016,06,05,16,01,29.50
2016,06,05,16,02,29.50
2016,06,05,16,03,29.50
2016,06,05,16,04,29.50
2016,06,05,16,05,29.40
2016,06,05,16,06,29.30
2016,06,05,16,07,29.20
2016,06,05,16,08,29.20
2016,06,05,16,09,29.30
2016,06,05,16,10,29.50
2016,06,05,16,11,29.60
2016,06,05,16,12,29.70
2016,06,05,16,13,29.80
2016,06,05,16,14,29.90
2016,06,05,16,15,29.90
2016,06,05,16,16,30.00
2016,06,05,16,17,30.10
2016,06,05,16,18,30.20
2016,06,05,16,19,30.20
2016,06,05,16,20,30.20
2016,06,05,16,21,30.10
2016,06,05,16,22,30.00
2016,06,05,16,23,29.90
2016,06,05,16,24,29.80
2016,06,05,16,25,29.90
2016,06,05,16,26,29.90
2016,06,05,16,27,29.80
2016,06,05,16,28,29.90
2016,06,05,16,29,29.90
2016,06,05,16,30,29.90
2016,06,05,16,31,29.90
2016,06,05,16,32,29.80
2016,06,05,16,33,29.80
2016,06,05,16,34,29.80
2016,06,05,16,35,29.80
2016,06,05,16,36,29.90
2016,06,05,16,37,30.00
2016,06,05,16,38,30.10
2016,06,05,16,39,30.30
2016,06,05,16,40,30.50
2016,06,05,16,41,30.60
2016,06,05,16,42,30.80
2016,06,05,16,43,30.90
2016,06,05,16,44,31.00
2016,06,05,16,45,31.10
2016,06,05,16,46,31.20
2016,06,05,16,47,31.30
2016,06,05,16,48,31.40
2016,06,05,16,49,31.40
2016,06,05,16,50,31.40
2016,06,05,16,51,31.40
2016,06,05,16,52,31.40
2016,06,05,16,53,31.50
2016,06,05,16,54,31.50
2016,06,05,16,55,31.40
2016,06,05,16,56,31.40
2016,06,05,16,57,31.40
2016,06,05,16,58,31.40
2016,06,05,16,59,31.30
2016,06,05,17,00,31.20
2016,06,05,17,01,31.20
2016,06,05,17,02,31.10
2016,06,05,17,03,31.00
2016,06,05,17,04,30.90
2016,06,05,17,05,30.80
2016,06,05,17,06,30.80
2016,06,05,17,07,30.80
2016,06,05,17,08,30.70
2016,06,05,17,09,30.70
2016,06,05,17,10,30.80
2016,06,05,17,11,30.80
2016,06,05,17,12,30.90
2016,06,05,17,13,31.00
2016,06,05,17,14,31.00
2016,06,05,17,15,31.10
2016,06,05,17,16,31.10
2016,06,05,17,17,31.10
2016,06,05,17,18,31.00
2016,06,05,17,19,31.00